AirNav   Everest Fuels
 
 1236 users online  

2NE7 Kumor Airport
Grant, Nebraska, USA

GOING TO GRANT?


FAA INFORMATION EFFECTIVE 10 SEPTEMBER 2020

Location

FAA Identifier: 2NE7
Lat/Long: 40-51-04.9850N 101-56-33.6460W
40-51.083083N 101-56.560767W
40.8513847,-101.9426794
(estimated)
Elevation: 3520 ft. / 1073 m (estimated)
Variation: 10E (1985)
From city: 10 miles W of GRANT, NE
Time zone: UTC -6 (UTC -7 during Standard Time)
Zip code: 69168

Airport Operations

Airport use: Private use. Permission required prior to landing
Activation date: 01/1975
Control tower: no
ARTCC: DENVER CENTER
FSS: COLUMBUS FLIGHT SERVICE STATION
Attendance: UNATNDD
Wind indicator: yes
Segmented circle: no

Airport Communications

WX AWOS-3 at OGA (18 nm NE): 121.275 (308-284-6573)

Nearby radio navigation aids

VOR radial/distance  VOR name  Freq  Var
SAEr198/17.7SEARLE VOR/DME110.2007E

 
NDB name  Hdg/Dist  Freq  Var  ID
GRANT254/9.735909EGGF --. --. ..-.
CHAPPELL110/27.038310ECNP -.-. -. .--.
OSHKOSH142/37.823309EOKS --- -.- ...

Airport Services

Airframe service: NONE
Powerplant service: NONE

Runway Information

Runway N/S

Dimensions: 3500 x 60 ft. / 1067 x 18 m
Surface: turf
RUNWAY N  RUNWAY S
Traffic pattern: leftleft

Runway E/W

Dimensions: 2600 x 100 ft. / 792 x 30 m
Surface: turf
RUNWAY E  RUNWAY W
Traffic pattern: leftleft

Airport Ownership and Management from official FAA records

Ownership: Privately-owned
Owner: LEON KUMOR
P.O. BOX 712
GRANT, NE 69140
Phone 308-352-4166
ASST. MANAGER: RON KUMOR, 5120 EAST 17TH STREET, CASPER, WY 82609, 307-259-1254, FLYWYO@VCN.COM
Manager: LEON KUMOR
P.O. BOX 712
GRANT, NE 69140
Phone 308-352-4166

Airport Operational Statistics

Aircraft based on the field: 3
Single engine airplanes: 3
    
Aircraft operations: avg 29/month
100% transient general aviation

Additional Remarks

A52-W BLDGS, TREES 1/8 MI EAST.
FOR CD CTC DENVER ARTCC AT 303-651-4257.

Instrument Procedures

There are no published instrument procedures at 2NE7.

Some nearby airports with instrument procedures:

KGGF - Grant Municipal Airport (10 nm E)
KOGA - Searle Field Airport (18 nm NE)
KHEQ - Holyoke Airport (23 nm SW)
KIML - Imperial Municipal Airport (25 nm SE)
KCNP - Billy G Ray Field Airport (27 nm NW)
 
Loc | Ops | Rwys | IFR | FBO | Links
Com | Nav | Svcs | Stats | Notes

Silverhawk Aviation, Inc.
AirBoss

 
Area around 2NE7 (Kumor Airport)
 
Road maps at: MapQuest Bing Google
 
Aerial photo
No photo
 
Sectional chart

 
Airport distance calculator
Flying to Kumor Airport? Find the distance to fly.

From to 2NE7

Sunrise and sunset
Times for 18-Sep-2020
 Local
(UTC-6)
 Zulu
(UTC)
Morning civil twilight06:0612:06
Sunrise06:3312:33
Sunset18:5000:50
Evening civil twilight19:1701:17

Current date and time
Zulu (UTC)  18-Sep-2020 13:20:44
Local (UTC-6)  18-Sep-2020 07:20:44
 
METAR
KOGA 
13nm NE 
181255Z AUTO 00000KT 3SM BR CLR 10/09 A3025 RMK AO2 T00980093
KHEQ 
23nm SW 
172250Z AUTO 13009KT 7SM 29/10 A3012 RMK AO2
KIML 
25nm SE 
181253Z AUTO 09005KT 1/4SM FG VV002 11/11 A3023 RMK AO2 SLP225 T01060106
TAF
KSNY 
49nm W 
181120Z 1812/1912 VRB06KT 6SM HZ SKC FM181500 15009KT 6SM HZ SKC FM181900 17012G19KT P6SM SCT250 FM190100 17009KT P6SM SCT250
NOTAMs
Click for the latest NOTAMs
NOTAMs are issued by the DoD/FAA and will open in a separate window not controlled by AirNav.

 

 
 

Would you like to see your business listed on this page?

 If your business provides an interesting product or service to pilots, flight crews, aircraft, or users of the Kumor Airport, you should consider listing it here.  To start the listing process, click on the button below
 
Add a business
 

Other Pages about Kumor Airport

Update a link
 
Copyright © AirNav, LLC. All rights reserved. Privacy Policy  Contact